GW0552 Weather Reports


time (UTC)temp
C
wind
direction
speed
KPH
gust
KPH
rain 1hr
cm
rain 24hr
cm
rain mn
cm
humidity
%
barometer
mb
20260901231236 28 125 0.0 0.0 0.00 0.00 0.00 83 1013.0
20260901230731 28 125 0.0 1.6 0.00 0.00 0.00 81 1013.4
20260901230225 28 127 1.6 1.6 0.00 0.00 0.00 80 1013.3
20260901225720 28 127 1.6 1.6 0.00 0.00 0.00 78 1013.1
20260901225214 29 127 1.6 1.6 0.00 0.00 0.00 78 1013.2
20260901224711 30 126 1.6 3.2 0.00 0.00 0.00 76 1013.3
20260901224207 30 126 1.6 1.6 0.00 0.00 0.00 74 1013.3
20260901223702 30 125 4.8 8.0 0.00 0.00 0.00 73 1013.3
20260901223157 31 126 1.6 1.6 0.00 0.00 0.00 73 1013.2
20260901222653 31 125 3.2 3.2 0.00 0.00 0.00 71 1013.3
20260901222149 31 126 1.6 1.6 0.00 0.00 0.00 71 1013.2
20260901221645 32 131 3.2 3.2 0.00 0.00 0.00 71 1013.5
20260901221140 32 131 1.6 1.6 0.00 0.00 0.00 69 1013.3
20260901220639 33 130 1.6 1.6 0.00 0.00 0.00 68 1013.1
20260901220139 34 128 0.0 0.0 0.00 0.00 0.00 66 1013.3
20260901215637 33 127 0.0 0.0 0.00 0.00 0.00 64 1013.3
20260901215132 33 131 1.6 1.6 0.00 0.00 0.00 65 1013.4
20260901214631 33 126 0.0 0.0 0.00 0.00 0.00 67 1013.4
20260901214130 33 125 0.0 0.0 0.00 0.00 0.00 68 1013.6
20260901213625 33 131 0.0 0.0 0.00 0.00 0.00 65 1013.7
20260901213120 32 130 1.6 1.6 0.00 0.00 0.00 68 1013.8
20260901212619 31 132 0.0 0.0 0.00 0.00 0.00 70 1013.4
20260901212116 31 133 0.0 0.0 0.00 0.00 0.00 76 1013.6
20260901211610 31 129 0.0 0.0 0.00 0.00 0.00 77 1013.8
20260901211107 31 132 0.0 0.0 0.00 0.00 0.00 76 1013.8
20260901210602 32 132 0.0 0.0 0.00 0.00 0.00 75 1013.9
20260901210058 31 130 0.0 0.0 0.00 0.00 0.00 77 1013.9
20260901205553 31 130 0.0 0.0 0.00 0.00 0.00 75 1014.2
20260901205047 31 130 1.6 1.6 0.00 0.00 0.00 74 1013.7
20260901204544 31 130 1.6 1.6 0.00 0.00 0.00 74 1013.9
20260901204039 31 129 1.6 1.6 0.00 0.00 0.00 73 1014.2
20260901203539 31 128 0.0 0.0 0.00 0.00 0.00 74 1014.1
20260901203034 31 128 0.0 0.0 0.00 0.00 0.00 72 1014.1
20260901202529 32 128 0.0 0.0 0.00 0.00 0.00 72 1014.0
20260901202025 32 128 0.0 0.0 0.00 0.00 0.00 69 1014.1
20260901201520 33 128 0.0 0.0 0.00 0.00 0.00 68 1014.1
20260901201014 33 129 0.0 0.0 0.00 0.00 0.00 61 1014.3
20260901200509 33 128 0.0 0.0 0.00 0.00 0.00 60 1014.2
20260901200008 33 113 1.6 1.6 0.00 0.00 0.00 60 1014.4
20260901195506 33 118 3.2 3.2 0.00 0.00 0.00 61 1014.3
20260901195006 32 122 0.0 0.0 0.00 0.00 0.00 69 1014.4
20260901194501 32 108 1.6 1.6 0.00 0.00 0.00 65 1014.3
20260901193957 32 127 0.0 0.0 0.00 0.00 0.00 63 1014.5
20260901193456 32 124 1.6 1.6 0.00 0.00 0.00 64 1014.4
20260901192956 33 132 3.2 4.8 0.00 0.00 0.00 63 1014.4
20260901192452 33 122 0.0 0.0 0.00 0.00 0.00 63 1014.4
20260901191948 33 114 0.0 1.6 0.00 0.00 0.00 62 1014.6
20260901191446 33 109 3.2 3.2 0.00 0.00 0.00 61 1014.6
20260901190939 33 117 0.0 0.0 0.00 0.00 0.00 60 1014.6
20260901190434 33 117 8.0 9.7 0.00 0.00 0.00 59 1014.7
20260901185932 33 130 4.8 8.0 0.00 0.00 0.00 61 1014.7
20260901185432 33 112 0.0 1.6 0.00 0.00 0.00 62 1014.8
20260901184926 33 112 0.0 0.0 0.00 0.00 0.00 61 1014.7
20260901184421 33 121 0.0 1.6 0.00 0.00 0.00 61 1014.6
20260901183917 33 128 1.6 3.2 0.00 0.00 0.00 60 1015.0
20260901183416 34 125 0.0 0.0 0.00 0.00 0.00 52 1014.8
20260901182912 34 122 0.0 0.0 0.00 0.00 0.00 58 1014.9
20260901182407 33 120 0.0 0.0 0.00 0.00 0.00 57 1015.0
20260901181902 33 119 0.0 0.0 0.00 0.00 0.00 56 1015.1
20260901181357 33 109 4.8 4.8 0.00 0.00 0.00 56 1014.9
20260901180856 34 113 0.0 0.0 0.00 0.00 0.00 54 1015.1
20260901180355 34 99 0.0 0.0 0.00 0.00 0.00 56 1015.1
20260901175853 33 331 3.2 8.0 0.00 0.00 0.00 57 1015.1
20260901175348 34 259 4.8 8.0 0.00 0.00 0.00 55 1015.3
20260901174844 33 81 3.2 3.2 0.00 0.00 0.00 55 1015.2
20260901174339 33 150 4.8 9.7 0.00 0.00 0.00 53 1015.4
20260901173835 33 134 4.8 4.8 0.00 0.00 0.00 57 1015.4
20260901173329 33 336 6.4 8.0 0.00 0.00 0.00 58 1015.8
20260901172826 32 131 3.2 3.2 0.00 0.00 0.00 63 1015.7
20260901172325 32 111 0.0 0.0 0.00 0.00 0.00 65 1015.8
20260901171823 32 115 0.0 1.6 0.00 0.00 0.00 65 1015.9
20260901171323 32 82 3.2 3.2 0.00 0.00 0.00 63 1015.8
20260901170822 33 80 4.8 8.0 0.00 0.00 0.00 63 1015.9
20260901170317 33 124 0.0 1.6 0.00 0.00 0.00 65 1016.0
20260901165816 32 117 1.6 1.6 0.00 0.00 0.00 64 1015.9
20260901165310 33 121 3.2 4.8 0.00 0.00 0.00 63 1015.9
20260901164807 32 134 3.2 3.2 0.00 0.00 0.00 66 1015.8
20260901164302 32 118 6.4 8.0 0.00 0.00 0.00 65 1016.1
20260901163757 32 132 4.8 8.0 0.00 0.00 0.00 68 1015.7
20260901163257 33 117 11.3 11.3 0.00 0.00 0.00 67 1015.8
20260901162752 32 122 0.0 0.0 0.00 0.00 0.00 67 1015.8
20260901162251 32 117 3.2 4.8 0.00 0.00 0.00 67 1015.9
20260901161750 32 120 6.4 8.0 0.00 0.00 0.00 68 1015.8
20260901161244 32 116 3.2 3.2 0.00 0.00 0.00 68 1016.0
20260901160741 31 103 3.2 3.2 0.00 0.00 0.00 69 1015.9
20260901160236 31 129 4.8 4.8 0.00 0.00 0.00 71 1015.8
20260901155735 31 128 3.2 3.2 0.00 0.00 0.00 72 1016.0
20260901155230 31 118 4.8 4.8 0.00 0.00 0.00 71 1015.9
20260901154725 31 135 1.6 1.6 0.00 0.00 0.00 73 1016.1
20260901154220 31 117 1.6 1.6 0.00 0.00 0.00 76 1015.9
20260901153716 31 110 3.2 3.2 0.00 0.00 0.00 73 1015.9
20260901153209 31 145 1.6 4.8 0.00 0.00 0.00 74 1016.1
20260901152704 31 148 4.8 4.8 0.00 0.00 0.00 73 1016.1
20260901152203 30 120 1.6 1.6 0.00 0.00 0.00 75 1016.3
20260901151659 30 127 4.8 8.0 0.00 0.00 0.00 75 1016.0
20260901151158 31 115 8.0 11.3 0.00 0.00 0.00 72 1016.3
20260901150657 30 118 6.4 8.0 0.00 0.00 0.00 73 1016.0
20260901150155 30 118 1.6 1.6 0.00 0.00 0.00 78 1016.1
20260901145654 30 119 0.0 0.0 0.00 0.00 0.00 82 1016.2
20260901145154 30 130 1.6 3.2 0.00 0.00 0.00 80 1016.1
20260901144649 30 126 0.0 0.0 0.00 0.00 0.00 82 1016.1
20260901144144 29 122 0.0 0.0 0.00 0.00 0.00 81 1016.2
20260901143639 29 107 0.0 0.0 0.00 0.00 0.00 83 1016.4
20260901143136 29 104 1.6 3.2 0.00 0.00 0.00 85 1016.3
20260901142632 28 122 0.0 0.0 0.00 0.00 0.00 90 1016.2
20260901142131 28 117 0.0 1.6 0.00 0.00 0.00 89 1016.2
20260901141626 28 110 0.0 0.0 0.00 0.00 0.00 91 1016.3
20260901141120 28 114 1.6 1.6 0.00 0.00 0.00 90 1016.1
20260901140619 27 114 4.8 4.8 0.00 0.00 0.00 86 1016.2
20260901140118 27 119 6.4 9.7 0.00 0.00 0.00 87 1016.1
20260901135618 27 109 0.0 0.0 0.00 0.00 0.00 95 1016.2
20260901135113 26 117 1.6 1.6 0.00 0.00 0.00 96 1016.2
20260901134610 26 112 1.6 1.6 0.00 0.00 0.00 96 1016.3
20260901134104 26 110 1.6 3.2 0.00 0.00 0.00 97 1016.2
20260901133603 25 112 1.6 1.6 0.00 0.00 0.00 97 1016.1
20260901133102 25 97 1.6 3.2 0.00 0.00 0.00 99 1016.1
20260901132556 25 117 0.0 0.0 0.00 0.00 0.00 99 1016.3
20260901132051 25 115 0.0 0.0 0.00 0.00 0.00 99 1016.3
20260901131551 24 115 0.0 0.0 0.00 0.00 0.00 99 1016.3
20260901131045 23 114 0.0 0.0 0.00 0.00 0.00 99 1016.2
20260901130540 23 114 0.0 0.0 0.00 0.00 0.00 99 1016.3
20260901130039 23 116 0.0 0.0 0.00 0.00 0.00 99 1016.2
20260901125537 22 117 0.0 0.0 0.00 0.00 0.00 99 1016.1
20260901125033 22 121 0.0 0.0 0.00 0.00 0.00 99 1016.1
20260901124532 22 123 0.0 0.0 0.00 0.00 0.00 99 1016.4
20260901124027 22 122 0.0 0.0 0.00 0.00 0.00 99 1016.4
20260901123522 22 122 0.0 0.0 0.00 0.00 0.00 99 1016.3
20260901123021 21 123 0.0 0.0 0.00 0.00 0.00 99 1016.2
20260901122520 21 124 0.0 0.0 0.00 0.00 0.00 99 1016.5
20260901122014 21 124 0.0 0.0 0.00 0.00 0.00 99 1016.6
20260901121509 21 123 0.0 0.0 0.00 0.00 0.00 99 1016.1
20260901121004 21 122 0.0 0.0 0.00 0.00 0.00 99 1016.4
20260901120504 21 123 0.0 0.0 0.00 0.00 0.00 99 1016.3
20260901115959 21 122 0.0 0.0 0.00 0.00 0.00 99 1016.2
20260901115454 21 124 0.0 0.0 0.00 0.00 0.00 99 1016.2
20260901114952 20 122 0.0 0.0 0.00 0.00 0.00 99 1016.3
20260901114447 20 122 0.0 0.0 0.00 0.00 0.00 99 1016.1
20260901113945 20 122 0.0 0.0 0.00 0.00 0.00 99 1015.9
20260901113444 20 121 0.0 0.0 0.00 0.00 0.00 99 1015.9
20260901112939 20 122 0.0 0.0 0.00 0.00 0.00 99 1015.9
20260901112435 20 122 0.0 0.0 0.00 0.00 0.00 99 1016.0
20260901111924 20 122 0.0 0.0 0.00 0.00 0.00 99 1015.9
20260901111422 20 122 0.0 0.0 0.00 0.00 0.00 99 1015.7
20260901110921 20 123 0.0 0.0 0.00 0.00 0.00 99 1015.8
20260901110417 20 120 0.0 0.0 0.00 0.00 0.00 99 1015.3
20260901105913 20 123 0.0 0.0 0.00 0.00 0.00 99 1015.3
20260901105408 20 122 0.0 0.0 0.00 0.00 0.00 99 1015.5
20260901104904 20 122 0.0 0.0 0.00 0.00 0.00 99 1015.4
20260901104359 20 123 0.0 0.0 0.00 0.00 0.00 99 1015.4
20260901103854 21 121 0.0 0.0 0.00 0.00 0.00 99 1015.3
20260901103348 21 121 0.0 0.0 0.00 0.00 0.00 99 1015.3
20260901102843 20 121 0.0 0.0 0.00 0.00 0.00 99 1015.2
20260901102338 21 125 0.0 0.0 0.00 0.00 0.00 99 1015.2
20260901101834 21 124 0.0 0.0 0.00 0.00 0.00 99 1015.2
20260901101333 21 123 0.0 0.0 0.00 0.00 0.00 99 1015.1
20260901100833 21 123 0.0 0.0 0.00 0.00 0.00 99 1015.3
20260901100327 21 123 0.0 0.0 0.00 0.00 0.00 99 1015.2
20260901095827 21 123 0.0 0.0 0.00 0.00 0.00 99 1015.1
20260901095324 21 122 0.0 0.0 0.00 0.00 0.00 99 1015.0
20260901094818 21 121 0.0 0.0 0.00 0.00 0.00 99 1014.9
20260901094144 21 123 0.0 0.0 0.00 0.00 0.00 99 1015.1
20260901093639 21 123 0.0 0.0 0.00 0.00 0.00 99 1015.1
20260901093138 21 123 0.0 0.0 0.00 0.00 0.00 99 1015.1
20260901092634 21 122 0.0 0.0 0.00 0.00 0.00 99 1014.9
20260901092130 21 123 0.0 0.0 0.00 0.00 0.00 99 1014.9
20260901091626 21 122 0.0 0.0 0.00 0.00 0.00 99 1014.7
20260901091120 21 123 0.0 0.0 0.00 0.00 0.00 99 1014.9
20260901090359 21 124 0.0 0.0 0.00 0.00 0.00 99 1014.6
20260901085856 21 124 0.0 0.0 0.00 0.00 0.00 99 1014.6
20260901085351 21 122 0.0 0.0 0.00 0.00 0.00 99 1014.7
20260901084848 21 123 0.0 0.0 0.00 0.00 0.00 99 1014.6
20260901084343 21 120 0.0 0.0 0.00 0.00 0.00 99 1014.5
20260901083839 21 117 0.0 0.0 0.00 0.00 0.00 99 1014.6
20260901083338 21 120 0.0 0.0 0.00 0.00 0.00 99 1014.6
20260901082836 21 124 0.0 0.0 0.00 0.00 0.00 99 1014.6
20260901082332 21 125 0.0 0.0 0.00 0.00 0.00 99 1014.4
20260901081827 21 121 0.0 0.0 0.00 0.00 0.00 99 1014.6
20260901081322 21 122 0.0 0.0 0.00 0.00 0.00 99 1014.6
20260901080816 21 122 0.0 0.0 0.00 0.00 0.00 99 1014.5
20260901080316 21 122 0.0 0.0 0.00 0.00 0.00 99 1014.5
20260901075810 21 123 0.0 0.0 0.00 0.00 0.00 99 1014.4
20260901075307 21 119 0.0 0.0 0.00 0.00 0.00 99 1014.7
20260901074800 21 122 0.0 0.0 0.00 0.00 0.00 99 1014.5
20260901074255 21 123 0.0 0.0 0.00 0.00 0.00 99 1014.4
20260901073751 21 123 0.0 0.0 0.00 0.00 0.00 99 1014.6
20260901073246 21 122 0.0 0.0 0.00 0.00 0.00 99 1014.7
20260901072741 21 122 0.0 0.0 0.00 0.00 0.00 99 1014.6
20260901072236 21 122 0.0 0.0 0.00 0.00 0.00 99 1014.6
20260901071730 21 123 0.0 0.0 0.00 0.00 0.00 99 1014.6
20260901071225 21 122 0.0 0.0 0.00 0.00 0.00 99 1014.2
20260901070724 21 122 0.0 0.0 0.00 0.00 0.00 99 1014.2
20260901070219 21 122 0.0 0.0 0.00 0.00 0.00 99 1014.2
20260901065631 21 121 0.0 0.0 0.00 0.00 0.00 99 1014.5
20260901065126 21 121 0.0 0.0 0.00 0.00 0.00 99 1014.5
20260901064624 22 121 0.0 0.0 0.00 0.00 0.00 99 1014.3
20260901064120 22 117 0.0 0.0 0.00 0.00 0.00 99 1014.3
20260901063616 22 118 0.0 0.0 0.00 0.00 0.00 99 1014.1
20260901063112 22 120 0.0 0.0 0.00 0.00 0.00 99 1014.3
20260901062608 22 123 0.0 0.0 0.00 0.00 0.00 99 1014.4
20260901062103 22 121 0.0 0.0 0.00 0.00 0.00 99 1014.2
20260901061600 22 123 0.0 0.0 0.00 0.00 0.00 99 1014.2
20260901061054 22 120 0.0 0.0 0.00 0.00 0.00 99 1014.3
20260901060549 22 124 0.0 0.0 0.00 0.00 0.00 99 1014.4
20260901060044 22 122 0.0 0.0 0.00 0.00 0.00 99 1014.5
20260901055539 22 119 0.0 0.0 0.00 0.00 0.00 99 1014.6
20260901055036 22 122 0.0 0.0 0.00 0.00 0.00 99 1014.6
20260901054533 22 126 0.0 0.0 0.00 0.00 0.00 99 1014.6
20260901054028 22 122 0.0 0.0 0.00 0.00 0.00 99 1014.4
20260901053525 22 120 0.0 0.0 0.00 0.00 0.00 99 1014.6
20260901053020 22 124 0.0 0.0 0.00 0.00 0.00 99 1014.7
20260901052515 22 124 0.0 0.0 0.00 0.00 0.00 99 1014.9
20260901052014 22 123 0.0 0.0 0.00 0.00 0.00 99 1014.8
20260901051509 22 122 0.0 0.0 0.00 0.00 0.00 99 1014.9
20260901051008 22 122 0.0 0.0 0.00 0.00 0.00 99 1014.9
20260901050504 22 122 0.0 0.0 0.00 0.00 0.00 99 1014.9
20260901045958 22 119 0.0 0.0 0.00 0.00 0.00 99 1014.7
20260901045454 22 120 0.0 0.0 0.00 0.00 0.00 99 1014.8
20260901044948 22 120 0.0 0.0 0.00 0.00 0.00 99 1014.9
20260901044444 22 120 0.0 0.0 0.00 0.00 0.00 99 1014.9
20260901043940 22 122 0.0 0.0 0.00 0.00 0.00 99 1015.0
20260901043436 22 122 0.0 0.0 0.00 0.00 0.00 99 1014.9
20260901042936 23 125 0.0 0.0 0.00 0.00 0.00 99 1014.8
20260901042436 23 123 0.0 0.0 0.00 0.00 0.00 99 1014.9
20260901041931 23 124 0.0 0.0 0.00 0.00 0.00 99 1015.0
20260901041426 23 124 0.0 0.0 0.00 0.00 0.00 99 1015.1
20260901040925 23 122 0.0 0.0 0.00 0.00 0.00 99 1015.2
20260901040420 23 124 0.0 0.0 0.00 0.00 0.00 99 1015.1
20260901035919 23 124 0.0 0.0 0.00 0.00 0.00 99 1015.0
20260901035418 23 124 0.0 0.0 0.00 0.00 0.00 99 1015.1
20260901034916 23 127 0.0 0.0 0.00 0.00 0.00 99 1015.1
20260901034023 23 122 0.0 0.0 0.00 0.00 0.00 99 1015.2
20260901033521 23 122 0.0 0.0 0.00 0.00 0.00 99 1015.2
20260901033021 23 122 0.0 0.0 0.00 0.00 0.00 99 1015.2
20260901032515 23 127 1.6 1.6 0.00 0.00 0.00 99 1014.9
20260901032015 23 128 1.6 1.6 0.00 0.00 0.00 99 1015.2
20260901031511 23 130 1.6 3.2 0.00 0.00 0.00 99 1015.2
20260901031006 24 125 0.0 0.0 0.00 0.00 0.00 99 1015.4
20260901030501 24 120 0.0 0.0 0.00 0.00 0.00 99 1015.3
20260901030000 24 125 0.0 0.0 0.00 0.00 0.00 99 1015.1
20260901025455 24 126 0.0 0.0 0.00 0.00 0.00 99 1015.1
20260901024954 24 125 0.0 0.0 0.00 0.00 0.00 99 1015.0
20260901024450 24 126 1.6 1.6 0.00 0.00 0.00 99 1015.4
20260901023948 24 125 0.0 0.0 0.00 0.00 0.00 99 1015.1
20260901023443 25 124 0.0 0.0 0.00 0.00 0.00 99 1015.2
20260901022938 25 125 1.6 1.6 0.00 0.00 0.00 99 1015.2
20260901022434 25 123 0.0 1.6 0.00 0.00 0.00 99 1015.4
20260901021928 25 125 0.0 0.0 0.00 0.00 0.00 99 1015.3
20260901021424 25 124 0.0 0.0 0.00 0.00 0.00 99 1015.2
20260901020919 25 124 0.0 0.0 0.00 0.00 0.00 99 1015.1
20260901020415 25 122 0.0 0.0 0.00 0.00 0.00 99 1015.2
20260901015913 25 122 0.0 0.0 0.00 0.00 0.00 99 1015.0
20260901015410 25 123 0.0 0.0 0.00 0.00 0.00 99 1015.1
20260901014909 25 123 0.0 0.0 0.00 0.00 0.00 99 1015.0
20260901014406 25 124 0.0 0.0 0.00 0.00 0.00 99 1015.2
20260901013901 25 125 0.0 0.0 0.00 0.00 0.00 99 1014.9
20260901013356 25 126 0.0 0.0 0.00 0.00 0.00 99 1014.8
20260901012852 25 124 0.0 0.0 0.00 0.00 0.00 99 1014.9
20260901012347 25 123 0.0 0.0 0.00 0.00 0.00 98 1014.6
20260901011842 25 124 1.6 1.6 0.00 0.00 0.00 98 1014.8
20260901011338 25 126 0.0 0.0 0.00 0.00 0.00 98 1014.7
20260901010831 25 125 0.0 1.6 0.00 0.00 0.00 98 1014.5
20260901010326 25 124 0.0 0.0 0.00 0.00 0.00 97 1014.6
20260901005825 25 123 0.0 0.0 0.00 0.00 0.00 96 1014.4
20260901005320 25 123 0.0 0.0 0.00 0.00 0.00 96 1014.4
20260901004820 26 124 0.0 0.0 0.00 0.00 0.00 96 1014.4
20260901004314 26 124 0.0 0.0 0.00 0.00 0.00 96 1014.5
20260901003814 26 124 0.0 0.0 0.00 0.00 0.00 96 1014.1
20260901003309 26 125 0.0 0.0 0.00 0.00 0.00 96 1014.1
20260901002803 26 126 0.0 0.0 0.00 0.00 0.00 96 1014.1
20260901002258 26 125 0.0 0.0 0.00 0.00 0.00 95 1013.8
20260901001752 26 125 0.0 0.0 0.00 0.00 0.00 95 1013.8
20260901001248 26 126 0.0 0.0 0.00 0.00 0.00 95 1013.6
20260901000743 26 127 0.0 0.0 0.00 0.00 0.00 95 1013.7
20260901000241 26 126 0.0 0.0 0.00 0.00 0.00 94 1013.9
20260831235737 27 127 0.0 0.0 0.00 0.00 0.00 94 1013.8
20260831235233 27 126 0.0 0.0 0.00 0.00 0.00 93 1013.9
20260831234733 27 126 0.0 1.6 0.00 0.00 0.00 93 1014.0
20260831234233 27 126 0.0 1.6 0.00 0.00 0.00 93 1013.8
20260831233728 27 127 0.0 0.0 0.00 0.00 0.00 92 1013.8
20260831233224 27 126 0.0 0.0 0.00 0.00 0.00 91 1013.9
20260831232723 27 127 1.6 1.6 0.00 0.00 0.00 91 1013.9
20260831232220 27 126 0.0 0.0 0.00 0.00 0.00 90 1013.8
20260831231716 28 124 0.0 1.6 0.00 0.00 0.00 90 1014.0